Vertical_Velocity
-5 2 -12 -12 -1 6 12 30 16 1 -10 24 -5 1 7 7 6 -2 2 2 -0 3 3 2 1 -1 -1 2 4 3 2 -2 2 3 -0 -3 0 -1 -2 -6 2 -4 -2 -1
6 -16 -8 2 5 12 16 -2 -7 -10 19 -5 2 3 1 8 2 2 5 -0 2 1 3 1 1 -5 1 3 5 3 -1 1 0 -2 -0 2 -0 -2 -2 -6 -6 -10 -4 -1
-3 -23 10 6 21 3 6 6 0 9 6 26 -12 1 9 11 6 5 1 -0 3 4 0 4 0 2 6 4 1 -0 1 -0 0 2 1 -1 1 -1 0 -0 2 2 -1 -0
-1 -5 16 31 -3 -2 -1 -5 6 3 25 -17 10 3 2 -1 1 -3 2 1 -2 -4 -0 2 1 1 1 2 -1 -0 -1 1 2 -0 0 -2 -3 -1 -4 -2 -2 2 -1 -3
-34 -8 9 9 1 -7 -21 1 6 4 -4 -1 22 -17 9 5 3 3 -1 -1 0 -3 -4 -2 0 0 2 -1 1 0 2 2 1 0 -0 1 -0 0 0 1 2 -0 0 -2
-18 17 11 6 1 3 15 5 -6 -2 4 6 8 0 19 10 -1 5 1 -2 0 -9 -1 -1 -1 2 3 4 1 2 -1 0 0 1 0 0 0 0 1 0 -0 0 0 1
5 -11 2 -2 -14 -7 -6 -1 -3 -6 1 -1 6 -9 4 -2 -3 -0 -1 -4 -1 -1 2 -1 1 2 1 2 4 1 -0 1 0 -2 -1 -1 -0 -2 -1 -1 -0 0 1 1
1 5 15 2 -11 -1 -6 6 0 -2 -1 3 9 -3 -4 4 2 1 0 -2 -0 3 0 -0 -2 -1 4 -1 -1 0 -2 -2 -1 1 -2 -3 -1 -0 -1 -1 0 -1 -1 -2
-3 4 7 -2 -6 2 2 -1 7 9 10 -13 0 5 1 -3 1 -2 -3 1 3 1 -1 -1 -1 2 3 -1 -1 -2 -2 -1 1 -0 -1 -1 -0 0 -0 0 -0 0 -0 1
2 10 0 -10 1 -2 4 6 -7 -14 -2 1 2 1 2 -3 1 -4 1 0 -0 -1 -0 -1 3 3 0 -0 -2 -0 -1 1 -0 -0 1 -2 -0 0 0 0 1 0 -1 0
-9 5 -2 -4 9 5 -9 -10 -5 1 1 -3 -0 6 10 3 2 1 2 1 1 0 -0 -0 3 3 1 1 0 -1 2 -1 -2 -2 -0 -0 -0 -0 0 0 0 -0 -1 -1
-1 0 1 0 -0 3 -2 -5 -7 -3 -6 5 -1 6 -3 -2 1 0 -0 -2 -0 0 -0 -1 4 3 2 0 1 -2 0 -1 -2 -2 -0 -1 -1 1 0 1 1 -0 -1 -0
2 -1 -1 4 1 -2 2 -0 -4 -3 6 4 -6 2 2 -0 -3 0 -0 1 1 1 -0 -1 4 3 1 0 -0 -2 0 -1 -1 -1 -0 -0 0 1 1 0 -1 -2 -0 -1
-1 -0 2 -2 2 3 3 -4 -2 1 -1 6 1 -6 5 2 0 -1 -1 0 -0 0 -3 1 -1 -0 -0 0 -2 -2 -0 -1 -1 -1 -0 -1 -0 -1 -1 -1 -1 -1 -1 -1
-5 -4 -2 3 -6 -7 2 -1 -4 -6 -1 -9 7 -4 2 -0 -1 -0 -0 -0 0 -0 -3 -1 0 1 -1 -3 0 -1 1 -1 -1 -1 -0 -1 -1 -1 -1 0 0 0 -0 -0
2 -1 2 -4 -1 -1 -0 2 -6 -1 17 9 4 -2 5 2 -3 -3 -1 -2 -0 -1 4 3 1 -1 -1 0 -1 -0 -1 -1 -1 -1 -1 -2 -0 -1 -0 0 -0 -0 -0 0
-4 -4 2 4 6 -2 -5 7 -1 -4 -3 0 -5 -3 3 2 -0 -1 -4 -4 1 2 2 1 0 -0 -0 -0 1 -1 -2 -1 -1 -1 -1 -1 -0 -0 -1 -1 0 -0 -1 -1
-3 -1 1 1 -5 -6 0 3 3 -8 -0 -0 -2 -1 -1 1 2 3 -1 6 4 1 0 1 0 -0 -2 2 -3 -2 -0 -2 -1 -1 -1 0 -0 -1 -1 -1 -0 -0 -1 -2
1 6 -4 -4 -2 3 3 0 -8 -7 4 3 -4 -5 -2 -1 0 1 1 0 2 1 0 -1 -1 -1 1 -2 -1 -0 -0 -1 -1 -0 -0 -2 -1 -2 -1 -0 -2 -1 -0 -1
3 8 -6 -2 -2 -1 -1 1 11 2 -4 7 -2 -4 -2 -2 -5 3 -0 -1 -1 -1 -1 -0 -2 2 -3 -1 -1 0 -1 -2 -1 -0 -2 -1 -1 -1 -1 -2 -3 -1 -1 -1
-3 5 1 -2 -2 7 8 -6 -4 2 -1 -3 -1 -0 -1 -1 1 2 -0 1 0 -0 -0 -1 -0 -3 -1 -0 -1 -1 -2 -0 -2 -1 1 -1 -1 -0 -0 -1 -0 0 0 4
-10 -5 4 1 -1 -1 3 -1 -5 -5 -5 2 3 1 2 -0 -0 -1 0 -0 -1 -1 1 -1 -3 -1 -1 -1 -1 -1 -1 -2 -1 -0 -1 -1 -2 -1 0 -1 0 0 1 2
13 5 -4 1 -5 -2 1 -2 -3 -4 3 1 -0 1 -1 -0 0 0 -0 -2 -2 0 -4 -3 -1 -0 -0 -2 -1 -1 -2 -2 1 0 -1 -3 -2 -0 -1 -1 0 1 -0 0
-4 -2 -6 -2 8 -2 -2 -3 -0 1 -2 -3 -1 -1 -1 -0 -1 -1 -1 -0 -2 -3 -1 -0 -0 -0 -1 -1 -1 -1 -2 -0 -0 -1 -2 -1 -1 -2 0 -1 -1 0 1 -1
0 1 2 -1 -1 -2 -0 2 1 -1 -2 -2 -2 -2 -2 -2 -1 -2 -1 -2 -1 -3 -2 -3 -2 -1 -2 -1 -1 -1 -0 -1 -0 -1 -1 -1 -1 -1 -1 -3 -3 -1 -3 -3
2 -1 -7 -12 -0 -1 1 1 -1 -1 -2 -2 -2 -3 -1 -2 -2 -2 -1 -2 -0 -3 -1 -2 -1 -1 -1 -2 -2 -0 -2 -1 -1 -1 -1 -2 -1 -1 -1 0 2 -3 -1 -0
Height
3156 3158 3156 3156 3158 3158 3160 3162 3161 3161 3163 3160 3161 3165 3165 3166 3164 3163 3162 3161 3159 3156 3156 3153 3152 3149 3147 3143 3141 3139 3135 3132 3129 3126 3122 3117 3113 3108 3102 3094 3088 3079 3074 3071
3155 3154 3152 3154 3156 3158 3159 3157 3158 3159 3157 3157 3161 3164 3165 3165 3163 3162 3161 3160 3159 3156 3155 3154 3151 3148 3144 3142 3140 3136 3133 3130 3126 3122 3118 3114 3110 3103 3097 3089 3083 3074 3069 3065
3150 3148 3152 3154 3155 3155 3155 3155 3156 3159 3155 3155 3156 3162 3166 3166 3163 3161 3160 3159 3158 3157 3155 3153 3150 3147 3144 3141 3137 3133 3130 3128 3125 3121 3117 3112 3106 3099 3093 3086 3081 3074 3067 3062
3148 3147 3150 3152 3152 3153 3152 3154 3154 3155 3156 3156 3156 3165 3166 3166 3164 3162 3159 3157 3156 3156 3154 3152 3149 3145 3141 3138 3135 3132 3129 3126 3122 3118 3113 3108 3102 3095 3088 3081 3075 3070 3063 3057
3146 3146 3148 3148 3150 3151 3150 3151 3150 3150 3150 3151 3154 3157 3167 3166 3163 3161 3158 3157 3155 3154 3154 3150 3145 3143 3141 3137 3134 3130 3126 3123 3119 3114 3109 3103 3097 3091 3084 3078 3072 3066 3060 3054
3143 3144 3144 3145 3146 3148 3149 3148 3148 3147 3148 3150 3150 3150 3168 3164 3160 3159 3159 3156 3154 3154 3151 3146 3143 3142 3140 3137 3132 3128 3124 3120 3115 3110 3105 3099 3093 3086 3080 3074 3068 3062 3057 3051
3140 3140 3142 3144 3146 3146 3147 3147 3147 3147 3145 3150 3150 3153 3162 3164 3158 3160 3159 3158 3156 3152 3148 3145 3143 3141 3138 3134 3130 3126 3121 3117 3112 3106 3100 3095 3088 3081 3075 3069 3064 3059 3053 3048
3139 3138 3140 3141 3144 3145 3144 3145 3146 3146 3145 3147 3151 3159 3161 3162 3161 3160 3160 3158 3152 3149 3147 3145 3141 3138 3136 3132 3127 3122 3117 3113 3108 3103 3096 3090 3084 3078 3072 3066 3061 3055 3049 3043
3137 3137 3138 3141 3143 3144 3142 3142 3143 3140 3140 3147 3157 3161 3163 3160 3162 3161 3158 3154 3152 3149 3146 3143 3140 3138 3135 3130 3125 3120 3114 3110 3104 3099 3093 3087 3081 3075 3070 3064 3058 3052 3046 3040
3139 3140 3140 3141 3141 3142 3142 3142 3141 3142 3142 3150 3160 3161 3157 3157 3157 3157 3155 3153 3151 3147 3144 3143 3141 3138 3133 3128 3123 3118 3112 3107 3101 3096 3091 3084 3078 3072 3067 3061 3055 3049 3043 3037
3137 3139 3142 3141 3142 3141 3141 3141 3142 3142 3142 3144 3158 3162 3160 3159 3158 3157 3155 3152 3149 3146 3144 3142 3140 3137 3131 3126 3121 3115 3110 3105 3099 3093 3088 3082 3076 3070 3065 3059 3053 3047 3040 3033
3137 3139 3140 3141 3142 3143 3142 3143 3144 3144 3144 3143 3144 3159 3159 3159 3158 3156 3154 3151 3148 3145 3142 3141 3140 3135 3130 3124 3118 3112 3108 3103 3097 3091 3085 3079 3074 3069 3063 3057 3051 3044 3037 3031
3137 3139 3140 3142 3144 3143 3143 3143 3143 3143 3142 3142 3143 3156 3156 3156 3155 3154 3152 3149 3147 3144 3141 3138 3137 3132 3126 3121 3116 3111 3107 3101 3096 3089 3084 3078 3073 3068 3061 3055 3049 3042 3035 3028
3138 3140 3141 3142 3143 3145 3145 3144 3144 3142 3141 3142 3144 3149 3155 3154 3152 3151 3150 3149 3146 3144 3140 3136 3133 3128 3124 3120 3115 3109 3104 3099 3093 3088 3082 3077 3071 3066 3060 3053 3047 3039 3032 3025
3138 3140 3142 3143 3144 3145 3146 3146 3145 3144 3143 3143 3152 3151 3154 3153 3152 3151 3149 3148 3145 3142 3138 3135 3131 3126 3122 3117 3113 3108 3104 3098 3092 3086 3081 3076 3070 3064 3058 3052 3045 3037 3030 3023
3137 3140 3142 3144 3146 3147 3148 3147 3147 3147 3147 3147 3149 3151 3154 3153 3151 3149 3148 3146 3143 3140 3139 3135 3131 3126 3121 3117 3112 3107 3103 3096 3091 3086 3081 3075 3070 3064 3057 3050 3043 3036 3029 3022
3136 3139 3142 3145 3145 3146 3149 3149 3147 3148 3148 3148 3148 3151 3151 3150 3149 3148 3147 3146 3145 3142 3138 3134 3129 3125 3121 3117 3112 3106 3100 3095 3090 3085 3080 3075 3069 3063 3056 3049 3042 3035 3027 3020
3135 3138 3141 3143 3144 3148 3148 3148 3147 3148 3150 3149 3149 3150 3151 3150 3151 3150 3148 3147 3145 3141 3136 3132 3128 3125 3120 3117 3110 3104 3099 3095 3090 3085 3080 3075 3069 3063 3056 3049 3042 3035 3027 3019
3136 3137 3139 3142 3144 3147 3147 3147 3148 3147 3151 3150 3149 3149 3150 3150 3150 3150 3148 3145 3141 3138 3135 3132 3128 3124 3120 3114 3109 3104 3099 3095 3090 3086 3081 3075 3070 3064 3057 3049 3042 3035 3028 3020
3133 3135 3138 3141 3143 3145 3143 3146 3147 3147 3150 3150 3148 3147 3146 3146 3146 3148 3146 3143 3141 3137 3134 3130 3127 3123 3117 3113 3108 3104 3100 3095 3091 3086 3081 3076 3071 3065 3058 3051 3044 3037 3029 3021
3131 3134 3136 3139 3142 3144 3143 3144 3146 3148 3152 3147 3149 3148 3145 3144 3145 3145 3143 3142 3139 3136 3133 3130 3127 3121 3117 3113 3108 3104 3100 3096 3091 3087 3082 3078 3072 3066 3060 3054 3047 3039 3032 3024
3130 3133 3135 3137 3140 3143 3142 3143 3145 3144 3145 3147 3148 3147 3146 3145 3144 3143 3142 3140 3138 3135 3133 3130 3126 3122 3118 3113 3109 3104 3100 3096 3092 3088 3084 3079 3074 3068 3062 3056 3049 3042 3034 3026
3130 3132 3133 3136 3136 3139 3140 3141 3142 3143 3145 3145 3145 3144 3144 3144 3144 3142 3140 3139 3137 3136 3133 3130 3127 3123 3118 3113 3109 3105 3101 3097 3093 3089 3085 3080 3076 3070 3064 3058 3051 3044 3036 3027
3128 3129 3131 3134 3138 3138 3138 3139 3141 3143 3143 3143 3143 3143 3143 3143 3142 3141 3140 3139 3137 3135 3133 3130 3127 3123 3118 3114 3109 3105 3102 3098 3095 3090 3086 3082 3077 3072 3066 3060 3053 3046 3038 3029
3127 3129 3130 3132 3135 3137 3138 3140 3141 3141 3142 3141 3142 3142 3142 3141 3141 3140 3139 3138 3138 3136 3133 3130 3127 3123 3118 3114 3110 3106 3103 3099 3095 3092 3088 3083 3079 3074 3068 3062 3055 3048 3040 3032
3126 3125 3128 3129 3133 3136 3137 3139 3139 3140 3141 3141 3141 3141 3141 3140 3140 3139 3139 3139 3138 3136 3134 3131 3128 3124 3119 3115 3110 3107 3104 3100 3097 3093 3089 3085 3081 3076 3070 3065 3058 3051 3044 3037